www.pogodaiklimat.ru

Погода и климат >> Архив погоды >> Россия >> Белгородская область >> Валуйки


АРХИВ ПОГОДЫ в Валуйках

Время (UTC), дата Ветер
(напр.,м/с)
 
Видим.   Явления Облачность Т
(С)
Тd
(С)
f
(%)
Тe
(С)
Тes
(С)
Комфортность P
(гПа)
Po
(гПа)
Тmin
(С)
Tmax
(С)
R
(мм)
R24
(мм)
S
(см)
00 17.01 Ю 1 10 км 10/0
[As op]
-5.3 -8.2 80 -8 -8 1012.5 998.1
03 17.01 ЮЗ 1 10 км 10/0
[As op]
-6.0 -8.7 81 -8 -8 1014.7 1000.3 -6.3
06 17.01 Ю 2 10 км 10/0
[As op]
-7.9 -8.9 93 -12 -12 1015.7 1001.1 -7.9 33
09 17.01 Ю 2 10 км 10/0
[As op]
-7.4 -8.3 93 -12 -11 1017.6 1003.0
12 17.01 Ю 2 10 км 9/0
[Ac trans]
-6.0 -8.3 84 -10 -10 1016.9 1002.5
15 17.01 ЮВ 2 10 км 10/0
[As op]
-8.0 -9.0 92 -13 -13 1017.2 1002.6
18 17.01 ЮВ 2 10 км 8/0
[Ac trans]
-8.6 -9.7 92 -13 -13 1016.3 1001.6 -6.0
21 17.01 Ю 3 10 км 10/0
[As op]
-6.3 -7.5 91 -12 -12 1015.6 1001.0
00 18.01 Ю 3 10 км 8/0
[Ac trans]
-3.7 -5.2 89 -9 -9 1014.5 1000.2
03 18.01 ЮЗ 3 10 км 10/0
[As op]
-1.3 -3.0 88 -6 -6 1013.9 999.7 -8.6
06 18.01 Ю 1 20 км 10/0
[As op]
-0.5 -2.3 88 -3 -2 1014.3 1000.1 -8.6 32
09 18.01 Ю 1 20 км 10/0
[As op]
+0.7 -1.6 85 -1 -1 1014.3 1000.2
12 18.01 Ю 2 20 км 10/0
[As op]
+1.4 -0.8 85 -2 -2 1013.0 999.0
15 18.01 Ю 2 10 км 10/0
[As op]
+1.7 +0.1 89 -2 -2 1012.9 998.9
18 18.01 Ю 2 10 км 10/0
[As op]
+1.7 +0.3 90 -2 -2 1012.4 998.4 +1.7
21 18.01 ЮЗ 3 10 км 10/0
[As op]
+1.6 +0.2 90 -3 -3 1012.4 998.4
00 19.01 ЮЗ 2 10 км 10/0
[As op]
+1.2 +0.4 94 -2 -2 1012.5 998.4
03 19.01 ЮЗ 2 10 км 10/0
[As op]
+0.8 0.0 94 -3 -3 1012.5 998.4 +0.8
06 19.01 З 1 4000 м слаб. снег 10/10 300 м
[Frnb Ns]
+0.5 -0.1 96 -2 -2 1013.4 999.3 +0.3 0.5 29
09 19.01 З 1 4000 м слаб. снег 10/10 300 м
[Frnb Ns]
+0.9 +0.1 94 -1 -1 1013.9 999.8
12 19.01 СЗ 4 20 км в посл. час снег 9/0
[Ac trans]
-0.4 -2.2 88 -6 -6 1015.7 1001.6
15 19.01 СЗ 2 10 км ясно -4.5 -10.1 65 -8 -8 1019.0 1004.6 2
18 19.01 СЗ 1 10 км ясно -8.1 -9.9 87 -10 -10 1020.5 1005.9 +1.2 2
21 19.01 СЗ 1 10 км ясно -9.4 -11.0 88 -12 -12 1022.8 1008.1
00 20.01 штиль 0 10 км ясно -12.0 -13.3 90 -12 -12 1023.9 1009.0
03 20.01 штиль 0 10 км ясно -13.7 -15.0 90 -14 -14 1024.6 1009.6 -14.0
06 20.01 штиль 0 10 км ясно -15.6 -17.5 85 -16 -15 1025.6 1010.5 -15.6 30
09 20.01 ЮВ 2 10 км 4/0
[Ci fib]
-10.1 -12.9 80 -15 -12 1025.8 1011.0
12 20.01 Ю 1 20 км 4/0
[Ci fib]
-6.3 -10.3 73 -8 -7 1024.6 1010.0
15 20.01 ЮВ 1 10 км 3/0
[Ci fib]
-9.2 -10.8 88 -12 -12 1023.8 1009.1
18 20.01 ЮВ 1 10 км ясно -10.8 -12.1 90 -13 -13 1024.2 1009.3 -6.3
21 20.01 ЮВ 1 10 км 10/0
[As op]
-10.1 -11.4 90 -12 -12 1022.4 1007.7
00 21.01 В 1 10 км 10/0
[As op]
-9.0 -10.6 88 -11 -11 1021.0 1006.3
03 21.01 ЮВ 1 4000 м слаб. снег 10/10 300 м
[Frnb Ns]
-7.7 -9.5 87 -10 -10 1018.6 1004.0 -10.8 0.8
06 21.01 В 1 4000 м слаб. снег 10/10 270 м
[Frnb Ns]
-6.6 -7.8 91 -9 -9 1015.9 1001.3 -10.8 4 31
09 21.01 З 1 4000 м слаб. снег 10/10 300 м
[Frnb Ns]
-5.5 -6.9 90 -8 -8 1014.8 1000.4
12 21.01 СЗ 2 10 км {снег} 3/0
[Ci fib]
-4.7 -7.5 81 -9 -8 1013.9 999.5
15 21.01 СЗ 3 10 км 10/0
[As op]
-6.3 -8.6 84 -12 -12 1015.2 1000.6 6
18 21.01 СЗ 2 10 км 3/0
[Ac trans]
-7.0 -9.9 80 -11 -11 1017.0 1002.4 -4.7 3
21 21.01 штиль 0 10 км ясно -10.1 -12.1 85 -10 -10 1018.9 1004.2
00 22.01 СЗ 1 10 км ясно -12.7 -14.0 90 -15 -15 1020.2 1005.3
03 22.01 штиль 0 500 м переохл. туман ?/? -16.4 -16.4 100 -16 -16 1021.1 1005.9 -16.4
06 22.01 ЮВ 1 10 км {туман} ясно -17.2 -18.4 90 -20 -20 1022.3 1007.1 -17.5 33
09 22.01 Ю 1 10 км 3/0
[Ac trans]
-12.8 -15.5 80 -15 -12 1023.0 1008.0
12 22.01 Ю 1 10 км 3/0
[Ac trans]
-8.4 -13.1 69 -11 -9 1023.1 1008.4
15 22.01 ЮВ 1 10 км ясно -13.5 -15.5 85 -16 -16 1023.6 1008.6
18 22.01 ЮВ 1 10 км 8/0
[Ac trans Ci fib]
-14.1 -15.4 90 -17 -17 1024.1 1009.1 -8.2
21 22.01 ЮВ 1 10 км 6/0
[Ac trans Ci fib]
-14.5 -16.5 85 -17 -17 1024.6 1009.5
00 23.01 штиль 0 10 км 8/0
[Ac trans Ci fib]
-14.8 -16.1 90 -15 -15 1024.8 1009.7
03 23.01 штиль 0 10 км 8/0
[Ac trans Ci fib]
-16.2 -18.1 85 -16 -16 1024.4 1009.2 -16.2
06 23.01 штиль 0 10 км 10/0
[As op]
-13.7 -15.7 85 -14 -14 1024.7 1009.7 -16.2 33
09 23.01 ЮВ 2 20 км 10/0
[As op]
-9.4 -11.5 85 -14 -13 1024.4 1009.7
12 23.01 В 3 20 км 10/0
[As op]
-8.3 -11.5 78 -14 -14 1022.9 1008.3
15 23.01 В 4 10 км в посл. час снег 10/0
[As op]
-7.9 -11.0 78 -15 -15 1020.8 1006.2 0.3
18 23.01 В 5 4000 м слаб. снег 10/10 330 м
[Frnb Ns]
-7.7 -9.9 84 -15 -15 1018.0 1003.4 -7.6 0.7
21 23.01 В 5 4000 м слаб. снег 10/10 300 м
[Frnb Ns]
-7.2 -8.5 90 -15 -15 1014.6 1000.1

 

Местоположение метеостанции Валуйки (Белгородская область, Россия): широта 50.22 долгота 38.10 высота над уровнем моря 112 м.

В архиве по умолчанию представлена погода в Валуйках за последнюю неделю. Архивные данные за месяц целиком и за предыдущие месяцы, начиная с января 2011 года, Вы можете получить, выбрав интересующий диапазон дат из раскрывающегося списка и нажав кнопку "Ввод!".


*Определитесь, кто Вы:
робот инопланетянин человек

Внимание! Время в таблицах - всемирное. Для получения местного времени необходимо прибавить поправку, которая равна 3 ч.

Смотрите также архив погоды в соседних городах и на ближайших метеорологических станциях:

Погода в Новопскове (Луганская область, Украина) (25 км)
Погода в Троицком (Луганская область, Украина) (35 км)
Погода в Великом Бурлуке (Харьковская область, Украина) (54 км)
Погода в Новом Осколе (Белгородская область, Россия) (61 км)
Погода в Купянске (Харьковская область, Украина) (72 км)
Погода в Сватово (Луганская область, Украина) (89 км)
Погода в Белгороде (Белгородская область, Россия) (117 км)
Погода в Богородицком (Белгородская область, Россия) (118 км)
Погода в Старом Осколе (Белгородская область, Россия) (121 км)
Погода в Изюме (Харьковская область, Украина) (129 км)

Пояснения к столбцам:

Ветер - указаны скорость ветра в м/с - средняя за 10 мин, порывы в срок и между сроками (в фигурных скобках) и направление, откуда дует ветер: С - северный, СВ - северо-восточный, В - восточный, ЮВ - юго-восточный, Ю - южный, ЮЗ - юго-западный, З - западный, СЗ - северо-западный.
Видимость - горизонтальная дальность видимости в метрах или километрах. При видимости от 1 до 10 км при отсутствии осадков обычно наблюдается дымка, при ухудшении видимости до 1 км и менее - туман. В сухую погоду видимость может ухудшаться дымом, пылью или мглою.
Явления - указаны атмосферные явления, наблюдавшиеся в срок или в последний час перед сроком; фигурными скобками обозначены явления, наблюдавшиеся между сроками (за 1-3 часа до срока); квадратными скобками обозначены град или гололедные отложения с указанием их диаметра в мм.
Облачность - указаны через наклонную черту общая и нижняя облачность в баллах и высота нижней границы облаков в метрах; квадратными скобками обозначены формы облаков: Ci - перистые, Cs - перисто-слоистые, Cc - перисто-кучевые, Ac - высококучевые, As - высокослоистые, Sc - слоисто-кучевые, Ns - слоисто-дождевые, Cu - кучевые, Cb - кучево-дождевые. Подробнее классификацию облаков см. в Атласе облаков (PDF).
T - Температура воздуха - температура, измеренная на высоте 2 м над землей.
Td - Температура точки росы - температура, при понижении до которой содержащийся в воздухе водяной пар достигнет насыщения.
f - Относительная влажность воздуха - влажноcть воздуха, измеренная на высоте 2 м над землей.
Te - Эффективная температура - температура, которую ощущает одетый по сезону человек в тени. Характеристика душности погоды. При расчете учитывается влияние влажности воздуха и скорости ветра на теплоощущения человека.
Tes - Эффективная температура на солнце - температура, которую ощущает человек, с поправкой на солнечный нагрев. Характеристика знойности погоды. Зависит от высоты солнца над горизонтом, облачности и скорости ветра. Ночью, в пасмурную погоду, а также при ветре 12 м/с и более поправка равна нулю.
P - Атмосферное давление - приведенное к уровню моря атмосферное давление.
Po - Атмосферное давление - измеренное на уровне метеостанции атмосферное давление.
Tmin - Минимальная температура - минимум температуры воздуха на высоте 2 м над землей.
Tmax - Максимальная температура - максимум температуры воздуха на высоте 2 м над землей.
R - Количество осадков - Количество выпавших осадков за период времени, мм. При наведении курсора мыши на число - период времени, за который выпало указанное количество осадков.
R24 - Количество осадков - Количество выпавших осадков за 24 часа, мм.
S - Снежный покров - Высота снежного покрова, см. При наведении курсора мыши на число - состояние снежного покрова и степень покрытия местности в баллах.